Year,Month,Day,Hour,Minute,Value (Times are PST for insolation in W/m^2)
2006,05,20,00,00,0.00
2006,05,20,00,01,0.00
2006,05,20,00,02,0.00
2006,05,20,00,03,0.00
2006,05,20,00,04,0.00
2006,05,20,00,05,0.00
2006,05,20,00,06,0.00
2006,05,20,00,07,0.00
2006,05,20,00,08,0.00
2006,05,20,00,09,0.00
2006,05,20,00,10,0.00
2006,05,20,00,11,0.00
2006,05,20,00,12,0.00
2006,05,20,00,13,0.00
2006,05,20,00,14,0.00
2006,05,20,00,15,0.00
2006,05,20,00,16,0.00
2006,05,20,00,17,0.00
2006,05,20,00,18,0.00
2006,05,20,00,19,0.00
2006,05,20,00,20,0.00
2006,05,20,00,21,0.00
2006,05,20,00,22,0.00
2006,05,20,00,23,0.00
2006,05,20,00,24,0.00
2006,05,20,00,25,0.00
2006,05,20,00,26,0.00
2006,05,20,00,27,0.00
2006,05,20,00,28,0.00
2006,05,20,00,29,0.00
2006,05,20,00,30,0.00
2006,05,20,00,31,0.00
2006,05,20,00,32,0.00
2006,05,20,00,33,0.00
2006,05,20,00,34,0.00
2006,05,20,00,35,0.00
2006,05,20,00,36,0.00
2006,05,20,00,37,0.00
2006,05,20,00,38,0.00
2006,05,20,00,39,0.00
2006,05,20,00,40,0.00
2006,05,20,00,41,0.00
2006,05,20,00,42,0.00
2006,05,20,00,43,0.00
2006,05,20,00,44,0.00
2006,05,20,00,45,0.00
2006,05,20,00,46,0.00
2006,05,20,00,47,0.00
2006,05,20,00,48,0.00
2006,05,20,00,49,0.00
2006,05,20,00,50,0.00
2006,05,20,00,51,0.00
2006,05,20,00,52,0.00
2006,05,20,00,53,0.00
2006,05,20,00,54,0.00
2006,05,20,00,55,0.00
2006,05,20,00,56,0.00
2006,05,20,00,57,0.00
2006,05,20,00,58,0.00
2006,05,20,00,59,0.00
2006,05,20,01,00,0.00
2006,05,20,01,01,0.00
2006,05,20,01,02,0.00
2006,05,20,01,03,0.00
2006,05,20,01,04,0.00
2006,05,20,01,05,0.00
2006,05,20,01,06,0.00
2006,05,20,01,07,0.00
2006,05,20,01,08,0.00
2006,05,20,01,09,0.00
2006,05,20,01,10,0.00
2006,05,20,01,11,0.00
2006,05,20,01,12,0.00
2006,05,20,01,13,0.00
2006,05,20,01,14,0.00
2006,05,20,01,15,0.00
2006,05,20,01,16,0.00
2006,05,20,01,17,0.00
2006,05,20,01,18,0.00
2006,05,20,01,19,0.00
2006,05,20,01,20,0.00
2006,05,20,01,21,0.00
2006,05,20,01,22,0.00
2006,05,20,01,23,0.00
2006,05,20,01,24,0.00
2006,05,20,01,25,0.00
2006,05,20,01,26,0.00
2006,05,20,01,27,0.00
2006,05,20,01,28,0.00
2006,05,20,01,29,0.00
2006,05,20,01,30,0.00
2006,05,20,01,31,0.00
2006,05,20,01,32,0.00
2006,05,20,01,33,0.00
2006,05,20,01,34,0.00
2006,05,20,01,35,0.00
2006,05,20,01,36,0.00
2006,05,20,01,37,0.00
2006,05,20,01,38,0.00
2006,05,20,01,39,0.00
2006,05,20,01,40,0.00
2006,05,20,01,41,0.00
2006,05,20,01,42,0.00
2006,05,20,01,43,0.00
2006,05,20,01,44,0.00
2006,05,20,01,45,0.00
2006,05,20,01,46,0.00
2006,05,20,01,47,0.00
2006,05,20,01,48,0.00
2006,05,20,01,49,0.00
2006,05,20,01,50,0.00
2006,05,20,01,51,0.00
2006,05,20,01,52,0.00
2006,05,20,01,53,0.00
2006,05,20,01,54,0.00
2006,05,20,01,55,0.00
2006,05,20,01,56,0.00
2006,05,20,01,57,0.00
2006,05,20,01,58,0.00
2006,05,20,01,59,0.00
2006,05,20,02,00,0.00
2006,05,20,02,01,0.00
2006,05,20,02,02,0.00
2006,05,20,02,03,0.00
2006,05,20,02,04,0.00
2006,05,20,02,05,0.00
2006,05,20,02,06,0.00
2006,05,20,02,07,0.00
2006,05,20,02,08,0.00
2006,05,20,02,09,0.00
2006,05,20,02,10,0.00
2006,05,20,02,11,0.00
2006,05,20,02,12,0.00
2006,05,20,02,13,0.00
2006,05,20,02,14,0.00
2006,05,20,02,15,0.00
2006,05,20,02,16,0.00
2006,05,20,02,17,0.00
2006,05,20,02,18,0.00
2006,05,20,02,19,0.00
2006,05,20,02,20,0.00
2006,05,20,02,21,0.00
2006,05,20,02,22,0.00
2006,05,20,02,23,0.00
2006,05,20,02,24,0.00
2006,05,20,02,25,0.00
2006,05,20,02,26,0.00
2006,05,20,02,27,0.00
2006,05,20,02,28,0.00
2006,05,20,02,29,0.00
2006,05,20,02,30,0.00
2006,05,20,02,31,0.00
2006,05,20,02,32,0.00
2006,05,20,02,33,0.00
2006,05,20,02,34,0.00
2006,05,20,02,35,0.00
2006,05,20,02,36,0.00
2006,05,20,02,37,0.00
2006,05,20,02,38,0.00
2006,05,20,02,39,0.00
2006,05,20,02,40,0.00
2006,05,20,02,41,0.00
2006,05,20,02,42,0.00
2006,05,20,02,43,0.00
2006,05,20,02,44,0.00
2006,05,20,02,45,0.00
2006,05,20,02,46,0.00
2006,05,20,02,47,0.00
2006,05,20,02,48,0.00
2006,05,20,02,49,0.00
2006,05,20,02,50,0.00
2006,05,20,02,51,0.00
2006,05,20,02,52,0.00
2006,05,20,02,53,0.00
2006,05,20,02,54,0.00
2006,05,20,02,55,0.00
2006,05,20,02,56,0.00
2006,05,20,02,57,0.00
2006,05,20,02,58,0.00
2006,05,20,02,59,0.00
2006,05,20,03,00,0.00
2006,05,20,03,01,0.00
2006,05,20,03,02,0.00
2006,05,20,03,03,0.00
2006,05,20,03,04,0.00
2006,05,20,03,05,0.00
2006,05,20,03,06,0.00
2006,05,20,03,07,0.00
2006,05,20,03,08,0.00
2006,05,20,03,09,0.00
2006,05,20,03,10,0.00
2006,05,20,03,11,0.00
2006,05,20,03,12,0.00
2006,05,20,03,13,0.00
2006,05,20,03,14,0.00
2006,05,20,03,15,0.00
2006,05,20,03,16,0.00
2006,05,20,03,17,0.00
2006,05,20,03,18,0.00
2006,05,20,03,19,0.00
2006,05,20,03,20,0.00
2006,05,20,03,21,0.00
2006,05,20,03,22,0.00
2006,05,20,03,23,0.00
2006,05,20,03,24,0.00
2006,05,20,03,25,0.00
2006,05,20,03,26,0.00
2006,05,20,03,27,0.00
2006,05,20,03,28,0.00
2006,05,20,03,29,0.00
2006,05,20,03,30,0.00
2006,05,20,03,31,0.00
2006,05,20,03,32,0.00
2006,05,20,03,33,0.00
2006,05,20,03,34,0.00
2006,05,20,03,35,0.00
2006,05,20,03,36,0.00
2006,05,20,03,37,0.00
2006,05,20,03,38,0.00
2006,05,20,03,39,0.00
2006,05,20,03,40,0.00
2006,05,20,03,41,0.00
2006,05,20,03,42,0.00
2006,05,20,03,43,0.00
2006,05,20,03,44,0.00
2006,05,20,03,45,0.00
2006,05,20,03,46,0.00
2006,05,20,03,47,0.00
2006,05,20,03,48,0.00
2006,05,20,03,49,0.00
2006,05,20,03,50,0.00
2006,05,20,03,51,0.00
2006,05,20,03,52,0.00
2006,05,20,03,53,0.00
2006,05,20,03,54,0.00
2006,05,20,03,55,0.00
2006,05,20,03,56,0.00
2006,05,20,03,57,0.00
2006,05,20,03,58,0.00
2006,05,20,03,59,0.00
2006,05,20,04,00,0.00
2006,05,20,04,01,0.00
2006,05,20,04,02,0.00
2006,05,20,04,03,0.00
2006,05,20,04,04,0.00
2006,05,20,04,05,0.00
2006,05,20,04,06,0.00
2006,05,20,04,07,0.00
2006,05,20,04,08,0.00
2006,05,20,04,09,0.00
2006,05,20,04,10,0.00
2006,05,20,04,11,0.00
2006,05,20,04,12,0.00
2006,05,20,04,13,0.00
2006,05,20,04,14,0.00
2006,05,20,04,15,0.00
2006,05,20,04,16,0.00
2006,05,20,04,17,0.00
2006,05,20,04,18,0.00
2006,05,20,04,19,0.00
2006,05,20,04,20,0.00
2006,05,20,04,21,0.00
2006,05,20,04,22,0.00
2006,05,20,04,23,0.00
2006,05,20,04,24,0.00
2006,05,20,04,25,0.00
2006,05,20,04,26,0.00
2006,05,20,04,27,0.00
2006,05,20,04,28,0.00
2006,05,20,04,29,0.00
2006,05,20,04,30,0.00
2006,05,20,04,31,0.00
2006,05,20,04,32,0.00
2006,05,20,04,33,0.00
2006,05,20,04,34,0.00
2006,05,20,04,35,0.00
2006,05,20,04,36,0.00
2006,05,20,04,37,0.00
2006,05,20,04,38,0.00
2006,05,20,04,39,0.00
2006,05,20,04,40,0.00
2006,05,20,04,41,0.00
2006,05,20,04,42,0.00
2006,05,20,04,43,0.00
2006,05,20,04,44,0.00
2006,05,20,04,45,0.00
2006,05,20,04,46,0.00
2006,05,20,04,47,0.00
2006,05,20,04,48,0.00
2006,05,20,04,49,0.00
2006,05,20,04,50,0.00
2006,05,20,04,51,0.00
2006,05,20,04,52,0.00
2006,05,20,04,53,0.00
2006,05,20,04,54,0.00
2006,05,20,04,55,0.00
2006,05,20,04,56,0.00
2006,05,20,04,57,0.00
2006,05,20,04,58,0.00
2006,05,20,04,59,0.00
2006,05,20,05,00,0.00
2006,05,20,05,01,0.00
2006,05,20,05,02,0.00
2006,05,20,05,03,0.00
2006,05,20,05,04,0.00
2006,05,20,05,05,0.00
2006,05,20,05,06,0.00
2006,05,20,05,07,0.00
2006,05,20,05,08,0.00
2006,05,20,05,09,0.00
2006,05,20,05,10,0.00
2006,05,20,05,11,0.00
2006,05,20,05,12,0.00
2006,05,20,05,13,0.00
2006,05,20,05,14,0.00
2006,05,20,05,15,0.00
2006,05,20,05,16,0.00
2006,05,20,05,17,0.00
2006,05,20,05,18,0.00
2006,05,20,05,19,0.00
2006,05,20,05,20,0.00
2006,05,20,05,21,0.00
2006,05,20,05,22,0.00
2006,05,20,05,23,0.00
2006,05,20,05,24,0.00
2006,05,20,05,25,0.00
2006,05,20,05,26,0.00
2006,05,20,05,27,0.00
2006,05,20,05,28,0.00
2006,05,20,05,29,0.00
2006,05,20,05,30,0.00
2006,05,20,05,31,0.00
2006,05,20,05,32,0.00
2006,05,20,05,33,0.00
2006,05,20,05,34,0.00
2006,05,20,05,35,0.00
2006,05,20,05,36,0.00
2006,05,20,05,37,0.00
2006,05,20,05,38,0.00
2006,05,20,05,39,0.00
2006,05,20,05,40,0.00
2006,05,20,05,41,0.00
2006,05,20,05,42,0.00
2006,05,20,05,43,0.00
2006,05,20,05,44,0.00
2006,05,20,05,45,0.00
2006,05,20,05,46,1.40
2006,05,20,05,47,5.00
2006,05,20,05,48,5.00
2006,05,20,05,49,5.00
2006,05,20,05,50,5.00
2006,05,20,05,51,6.90
2006,05,20,05,52,7.00
2006,05,20,05,53,7.80
2006,05,20,05,54,9.00
2006,05,20,05,55,9.00
2006,05,20,05,56,10.70
2006,05,20,05,57,10.70
2006,05,20,05,58,9.00
2006,05,20,05,59,9.00
2006,05,20,06,00,10.10
2006,05,20,06,01,11.00
2006,05,20,06,02,11.00
2006,05,20,06,03,12.00
2006,05,20,06,04,12.00
2006,05,20,06,05,12.90
2006,05,20,06,06,14.00
2006,05,20,06,07,14.00
2006,05,20,06,08,14.00
2006,05,20,06,09,14.30
2006,05,20,06,10,15.30
2006,05,20,06,11,14.00
2006,05,20,06,12,15.20
2006,05,20,06,13,16.00
2006,05,20,06,14,16.10
2006,05,20,06,15,18.00
2006,05,20,06,16,18.40
2006,05,20,06,17,19.00
2006,05,20,06,18,19.00
2006,05,20,06,19,20.60
2006,05,20,06,20,21.00
2006,05,20,06,21,21.40
2006,05,20,06,22,23.70
2006,05,20,06,23,25.00
2006,05,20,06,24,25.70
2006,05,20,06,25,26.00
2006,05,20,06,26,26.00
2006,05,20,06,27,26.00
2006,05,20,06,28,26.00
2006,05,20,06,29,26.00
2006,05,20,06,30,26.00
2006,05,20,06,31,26.00
2006,05,20,06,32,30.10
2006,05,20,06,33,32.00
2006,05,20,06,34,32.40
2006,05,20,06,35,33.00
2006,05,20,06,36,33.00
2006,05,20,06,37,33.00
2006,05,20,06,38,33.30
2006,05,20,06,39,35.00
2006,05,20,06,40,35.90
2006,05,20,06,41,37.00
2006,05,20,06,42,38.40
2006,05,20,06,43,39.00
2006,05,20,06,44,40.30
2006,05,20,06,45,42.60
2006,05,20,06,46,44.90
2006,05,20,06,47,47.80
2006,05,20,06,48,50.50
2006,05,20,06,49,53.70
2006,05,20,06,50,56.40
2006,05,20,06,51,58.60
2006,05,20,06,52,61.00
2006,05,20,06,53,62.60
2006,05,20,06,54,63.00
2006,05,20,06,55,63.00
2006,05,20,06,56,63.90
2006,05,20,06,57,67.00
2006,05,20,06,58,67.00
2006,05,20,06,59,67.00
2006,05,20,07,00,65.40
2006,05,20,07,01,65.00
2006,05,20,07,02,65.40
2006,05,20,07,03,67.70
2006,05,20,07,04,69.50
2006,05,20,07,05,71.30
2006,05,20,07,06,73.60
2006,05,20,07,07,74.00
2006,05,20,07,08,73.50
2006,05,20,07,09,72.00
2006,05,20,07,10,72.00
2006,05,20,07,11,72.00
2006,05,20,07,12,73.70
2006,05,20,07,13,76.00
2006,05,20,07,14,78.10
2006,05,20,07,15,81.90
2006,05,20,07,16,83.60
2006,05,20,07,17,86.80
2006,05,20,07,18,89.70
2006,05,20,07,19,91.00
2006,05,20,07,20,91.60
2006,05,20,07,21,93.90
2006,05,20,07,22,96.10
2006,05,20,07,23,97.70
2006,05,20,07,24,99.70
2006,05,20,07,25,104.40
2006,05,20,07,26,107.60
2006,05,20,07,27,110.70
2006,05,20,07,28,113.60
2006,05,20,07,29,115.50
2006,05,20,07,30,116.10
2006,05,20,07,31,118.00
2006,05,20,07,32,118.00
2006,05,20,07,33,119.00
2006,05,20,07,34,120.00
2006,05,20,07,35,120.00
2006,05,20,07,36,120.90
2006,05,20,07,37,121.00
2006,05,20,07,38,121.00
2006,05,20,07,39,121.00
2006,05,20,07,40,120.40
2006,05,20,07,41,120.00
2006,05,20,07,42,120.00
2006,05,20,07,43,120.00
2006,05,20,07,44,120.30
2006,05,20,07,45,122.00
2006,05,20,07,46,123.00
2006,05,20,07,47,126.10
2006,05,20,07,48,127.10
2006,05,20,07,49,128.50
2006,05,20,07,50,130.80
2006,05,20,07,51,133.10
2006,05,20,07,52,136.00
2006,05,20,07,53,140.30
2006,05,20,07,54,142.00
2006,05,20,07,55,149.00
2006,05,20,07,56,149.80
2006,05,20,07,57,151.00
2006,05,20,07,58,153.80
2006,05,20,07,59,160.80
2006,05,20,08,00,171.70
2006,05,20,08,01,176.00
2006,05,20,08,02,176.00
2006,05,20,08,03,183.60
2006,05,20,08,04,192.10
2006,05,20,08,05,193.00
2006,05,20,08,06,194.20
2006,05,20,08,07,200.60
2006,05,20,08,08,202.00
2006,05,20,08,09,209.00
2006,05,20,08,10,231.00
2006,05,20,08,11,255.40
2006,05,20,08,12,265.50
2006,05,20,08,13,294.40
2006,05,20,08,14,333.50
2006,05,20,08,15,352.70
2006,05,20,08,16,371.20
2006,05,20,08,17,374.00
2006,05,20,08,18,375.50
2006,05,20,08,19,375.30
2006,05,20,08,20,328.00
2006,05,20,08,21,313.50
2006,05,20,08,22,283.50
2006,05,20,08,23,236.30
2006,05,20,08,24,212.00
2006,05,20,08,25,193.90
2006,05,20,08,26,176.00
2006,05,20,08,27,161.80
2006,05,20,08,28,154.00
2006,05,20,08,29,147.70
2006,05,20,08,30,140.90
2006,05,20,08,31,135.10
2006,05,20,08,32,129.40
2006,05,20,08,33,124.30
2006,05,20,08,34,120.40
2006,05,20,08,35,121.10
2006,05,20,08,36,123.00
2006,05,20,08,37,123.00
2006,05,20,08,38,125.20
2006,05,20,08,39,131.90
2006,05,20,08,40,140.00
2006,05,20,08,41,144.10
2006,05,20,08,42,146.00
2006,05,20,08,43,148.70
2006,05,20,08,44,157.00
2006,05,20,08,45,163.40
2006,05,20,08,46,168.50
2006,05,20,08,47,165.00
2006,05,20,08,48,165.60
2006,05,20,08,49,167.80
2006,05,20,08,50,167.80
2006,05,20,08,51,163.30
2006,05,20,08,52,151.90
2006,05,20,08,53,136.90
2006,05,20,08,54,123.00
2006,05,20,08,55,109.70
2006,05,20,08,56,100.70
2006,05,20,08,57,97.30
2006,05,20,08,58,98.20
2006,05,20,08,59,105.50
2006,05,20,09,00,111.00
2006,05,20,09,01,124.40
2006,05,20,09,02,147.50
2006,05,20,09,03,162.40
2006,05,20,09,04,179.00
2006,05,20,09,05,193.90
2006,05,20,09,06,195.60
2006,05,20,09,07,189.20
2006,05,20,09,08,179.10
2006,05,20,09,09,170.50
2006,05,20,09,10,162.10
2006,05,20,09,11,159.60
2006,05,20,09,12,156.90
2006,05,20,09,13,151.90
2006,05,20,09,14,147.00
2006,05,20,09,15,146.00
2006,05,20,09,16,144.50
2006,05,20,09,17,133.00
2006,05,20,09,18,128.80
2006,05,20,09,19,125.90
2006,05,20,09,20,126.40
2006,05,20,09,21,131.10
2006,05,20,09,22,139.90
2006,05,20,09,23,147.50
2006,05,20,09,24,151.00
2006,05,20,09,25,149.20
2006,05,20,09,26,145.20
2006,05,20,09,27,144.00
2006,05,20,09,28,144.30
2006,05,20,09,29,146.00
2006,05,20,09,30,148.20
2006,05,20,09,31,153.90
2006,05,20,09,32,160.40
2006,05,20,09,33,162.30
2006,05,20,09,34,169.50
2006,05,20,09,35,172.70
2006,05,20,09,36,174.00
2006,05,20,09,37,175.20
2006,05,20,09,38,179.80
2006,05,20,09,39,184.80
2006,05,20,09,40,189.00
2006,05,20,09,41,195.50
2006,05,20,09,42,204.30
2006,05,20,09,43,216.80
2006,05,20,09,44,231.20
2006,05,20,09,45,245.40
2006,05,20,09,46,250.80
2006,05,20,09,47,248.50
2006,05,20,09,48,246.00
2006,05,20,09,49,246.00
2006,05,20,09,50,244.40
2006,05,20,09,51,241.10
2006,05,20,09,52,241.40
2006,05,20,09,53,243.40
2006,05,20,09,54,244.00
2006,05,20,09,55,245.30
2006,05,20,09,56,249.30
2006,05,20,09,57,257.30
2006,05,20,09,58,265.30
2006,05,20,09,59,269.80
2006,05,20,10,00,269.90
2006,05,20,10,01,269.00
2006,05,20,10,02,269.00
2006,05,20,10,03,261.20
2006,05,20,10,04,271.60
2006,05,20,10,05,282.50
2006,05,20,10,06,288.70
2006,05,20,10,07,291.50
2006,05,20,10,08,287.70
2006,05,20,10,09,283.30
2006,05,20,10,10,287.70
2006,05,20,10,11,297.50
2006,05,20,10,12,309.90
2006,05,20,10,13,325.20
2006,05,20,10,14,336.80
2006,05,20,10,15,338.50
2006,05,20,10,16,344.70
2006,05,20,10,17,354.00
2006,05,20,10,18,359.30
2006,05,20,10,19,362.00
2006,05,20,10,20,359.30
2006,05,20,10,21,380.10
2006,05,20,10,22,480.70
2006,05,20,10,23,498.40
2006,05,20,10,24,489.80
2006,05,20,10,25,496.40
2006,05,20,10,26,524.10
2006,05,20,10,27,529.00
2006,05,20,10,28,529.00
2006,05,20,10,29,529.00
2006,05,20,10,30,585.10
2006,05,20,10,31,615.00
2006,05,20,10,32,482.70
2006,05,20,10,33,439.80
2006,05,20,10,34,424.50
2006,05,20,10,35,414.00
2006,05,20,10,36,399.70
2006,05,20,10,37,384.90
2006,05,20,10,38,368.50
2006,05,20,10,39,368.30
2006,05,20,10,40,415.00
2006,05,20,10,41,445.00
2006,05,20,10,42,506.90
2006,05,20,10,43,604.80
2006,05,20,10,44,595.70
2006,05,20,10,45,439.40
2006,05,20,10,46,393.70
2006,05,20,10,47,345.10
2006,05,20,10,48,329.00
2006,05,20,10,49,310.70
2006,05,20,10,50,315.30
2006,05,20,10,51,338.00
2006,05,20,10,52,362.90
2006,05,20,10,53,361.90
2006,05,20,10,54,370.10
2006,05,20,10,55,361.60
2006,05,20,10,56,355.00
2006,05,20,10,57,347.80
2006,05,20,10,58,358.40
2006,05,20,10,59,366.00
2006,05,20,11,00,366.00
2006,05,20,11,01,379.50
2006,05,20,11,02,663.00
2006,05,20,11,03,632.40
2006,05,20,11,04,575.00
2006,05,20,11,05,575.00
2006,05,20,11,06,575.00
2006,05,20,11,07,590.40
2006,05,20,11,08,916.40
2006,05,20,11,09,943.10
2006,05,20,11,10,977.00
2006,05,20,11,11,936.80
2006,05,20,11,12,912.00
2006,05,20,11,13,980.60
2006,05,20,11,14,978.40
2006,05,20,11,15,963.20
2006,05,20,11,16,917.50
2006,05,20,11,17,894.90
2006,05,20,11,18,904.00
2006,05,20,11,19,570.90
2006,05,20,11,20,555.00
2006,05,20,11,21,548.90
2006,05,20,11,22,541.00
2006,05,20,11,23,660.30
2006,05,20,11,24,705.00
2006,05,20,11,25,660.90
2006,05,20,11,26,366.70
2006,05,20,11,27,363.10
2006,05,20,11,28,353.70
2006,05,20,11,29,352.10
2006,05,20,11,30,348.70
2006,05,20,11,31,350.00
2006,05,20,11,32,354.50
2006,05,20,11,33,369.50
2006,05,20,11,34,378.30
2006,05,20,11,35,392.80
2006,05,20,11,36,399.80
2006,05,20,11,37,383.30
2006,05,20,11,38,374.50
2006,05,20,11,39,371.00
2006,05,20,11,40,371.00
2006,05,20,11,41,381.30
2006,05,20,11,42,388.20
2006,05,20,11,43,401.80
2006,05,20,11,44,412.00
2006,05,20,11,45,418.50
2006,05,20,11,46,423.80
2006,05,20,11,47,421.60
2006,05,20,11,48,468.60
2006,05,20,11,49,473.00
2006,05,20,11,50,473.00
2006,05,20,11,51,478.20
2006,05,20,11,52,483.00
2006,05,20,11,53,483.00
2006,05,20,11,54,492.80
2006,05,20,11,55,574.90
2006,05,20,11,56,520.40
2006,05,20,11,57,575.60
2006,05,20,11,58,673.70
2006,05,20,11,59,645.20
2006,05,20,12,00,633.00
2006,05,20,12,01,633.00
2006,05,20,12,02,633.00
2006,05,20,12,03,633.00
2006,05,20,12,04,633.00
2006,05,20,12,05,633.00
2006,05,20,12,06,633.00
2006,05,20,12,07,633.00
2006,05,20,12,08,543.40
2006,05,20,12,09,427.00
2006,05,20,12,10,427.00
2006,05,20,12,11,307.90
2006,05,20,12,12,294.00
2006,05,20,12,13,294.00
2006,05,20,12,14,310.40
2006,05,20,12,15,344.60
2006,05,20,12,16,366.60
2006,05,20,12,17,387.50
2006,05,20,12,18,390.00
2006,05,20,12,19,390.00
2006,05,20,12,20,432.60
2006,05,20,12,21,539.00
2006,05,20,12,22,575.00
2006,05,20,12,23,572.30
2006,05,20,12,24,512.00
2006,05,20,12,25,512.00
2006,05,20,12,26,547.90
2006,05,20,12,27,575.10
2006,05,20,12,28,568.00
2006,05,20,12,29,635.80
2006,05,20,12,30,611.10
2006,05,20,12,31,510.90
2006,05,20,12,32,520.00
2006,05,20,12,33,520.00
2006,05,20,12,34,520.00
2006,05,20,12,35,520.00
2006,05,20,12,36,627.80
2006,05,20,12,37,1028.50
2006,05,20,12,38,1048.00
2006,05,20,12,39,1048.00
2006,05,20,12,40,1048.00
2006,05,20,12,41,1018.70
2006,05,20,12,42,726.00
2006,05,20,12,43,684.30
2006,05,20,12,44,604.00
2006,05,20,12,45,587.00
2006,05,20,12,46,587.00
2006,05,20,12,47,587.00
2006,05,20,12,48,587.00
2006,05,20,12,49,587.00
2006,05,20,12,50,587.00
2006,05,20,12,51,752.10
2006,05,20,12,52,814.00
2006,05,20,12,53,1277.70
2006,05,20,12,54,1265.30
2006,05,20,12,55,1241.00
2006,05,20,12,56,1140.40
2006,05,20,12,57,1063.00
2006,05,20,12,58,1071.80
2006,05,20,12,59,1266.00
2006,05,20,13,00,1266.00
2006,05,20,13,01,1266.00
2006,05,20,13,02,1266.00
2006,05,20,13,03,1266.00
2006,05,20,13,04,1231.70
2006,05,20,13,05,475.30
2006,05,20,13,06,473.00
2006,05,20,13,07,480.60
2006,05,20,13,08,476.50
2006,05,20,13,09,488.60
2006,05,20,13,10,474.80
2006,05,20,13,11,473.00
2006,05,20,13,12,483.30
2006,05,20,13,13,504.00
2006,05,20,13,14,504.00
2006,05,20,13,15,504.00
2006,05,20,13,16,504.00
2006,05,20,13,17,504.00
2006,05,20,13,18,575.20
2006,05,20,13,19,686.00
2006,05,20,13,20,686.00
2006,05,20,13,21,686.00
2006,05,20,13,22,500.20
2006,05,20,13,23,510.90
2006,05,20,13,24,540.40
2006,05,20,13,25,497.80
2006,05,20,13,26,488.80
2006,05,20,13,27,477.50
2006,05,20,13,28,473.40
2006,05,20,13,29,478.00
2006,05,20,13,30,483.90
2006,05,20,13,31,496.90
2006,05,20,13,32,506.00
2006,05,20,13,33,506.00
2006,05,20,13,34,483.70
2006,05,20,13,35,477.00
2006,05,20,13,36,486.60
2006,05,20,13,37,500.90
2006,05,20,13,38,531.90
2006,05,20,13,39,528.00
2006,05,20,13,40,508.00
2006,05,20,13,41,509.60
2006,05,20,13,42,506.60
2006,05,20,13,43,500.20
2006,05,20,13,44,537.00
2006,05,20,13,45,594.70
2006,05,20,13,46,609.90
2006,05,20,13,47,605.40
2006,05,20,13,48,591.00
2006,05,20,13,49,552.70
2006,05,20,13,50,527.00
2006,05,20,13,51,527.00
2006,05,20,13,52,527.00
2006,05,20,13,53,527.00
2006,05,20,13,54,527.00
2006,05,20,13,55,527.00
2006,05,20,13,56,527.00
2006,05,20,13,57,1014.80
2006,05,20,13,58,1037.00
2006,05,20,13,59,1013.10
2006,05,20,14,00,981.20
2006,05,20,14,01,982.70
2006,05,20,14,02,981.00
2006,05,20,14,03,990.30
2006,05,20,14,04,1026.80
2006,05,20,14,05,1053.00
2006,05,20,14,06,1053.00
2006,05,20,14,07,1053.00
2006,05,20,14,08,778.70
2006,05,20,14,09,721.00
2006,05,20,14,10,663.50
2006,05,20,14,11,541.00
2006,05,20,14,12,563.00
2006,05,20,14,13,563.00
2006,05,20,14,14,563.00
2006,05,20,14,15,1134.00
2006,05,20,14,16,1134.00
2006,05,20,14,17,1090.80
2006,05,20,14,18,1016.20
2006,05,20,14,19,974.50
2006,05,20,14,20,941.40
2006,05,20,14,21,916.80
2006,05,20,14,22,904.00
2006,05,20,14,23,894.50
2006,05,20,14,24,889.20
2006,05,20,14,25,890.20
2006,05,20,14,26,889.10
2006,05,20,14,27,888.00
2006,05,20,14,28,888.00
2006,05,20,14,29,888.50
2006,05,20,14,30,888.40
2006,05,20,14,31,888.00
2006,05,20,14,32,891.30
2006,05,20,14,33,900.00
2006,05,20,14,34,910.10
2006,05,20,14,35,919.50
2006,05,20,14,36,933.40
2006,05,20,14,37,948.50
2006,05,20,14,38,951.00
2006,05,20,14,39,845.90
2006,05,20,14,40,519.80
2006,05,20,14,41,476.00
2006,05,20,14,42,542.00
2006,05,20,14,43,575.00
2006,05,20,14,44,575.00
2006,05,20,14,45,575.00
2006,05,20,14,46,553.50
2006,05,20,14,47,520.00
2006,05,20,14,48,520.00
2006,05,20,14,49,520.00
2006,05,20,14,50,894.10
2006,05,20,14,51,887.40
2006,05,20,14,52,885.20
2006,05,20,14,53,882.30
2006,05,20,14,54,879.60
2006,05,20,14,55,877.30
2006,05,20,14,56,869.70
2006,05,20,14,57,867.10
2006,05,20,14,58,863.10
2006,05,20,14,59,862.20
2006,05,20,15,00,863.00
2006,05,20,15,01,864.70
2006,05,20,15,02,862.70
2006,05,20,15,03,860.00
2006,05,20,15,04,856.20
2006,05,20,15,05,853.40
2006,05,20,15,06,850.00
2006,05,20,15,07,846.10
2006,05,20,15,08,841.10
2006,05,20,15,09,837.70
2006,05,20,15,10,836.00
2006,05,20,15,11,835.00
2006,05,20,15,12,835.00
2006,05,20,15,13,831.50
2006,05,20,15,14,833.00
2006,05,20,15,15,833.00
2006,05,20,15,16,836.70
2006,05,20,15,17,842.50
2006,05,20,15,18,845.60
2006,05,20,15,19,847.50
2006,05,20,15,20,853.00
2006,05,20,15,21,853.40
2006,05,20,15,22,854.00
2006,05,20,15,23,849.10
2006,05,20,15,24,842.90
2006,05,20,15,25,834.40
2006,05,20,15,26,826.90
2006,05,20,15,27,824.00
2006,05,20,15,28,822.30
2006,05,20,15,29,818.20
2006,05,20,15,30,816.20
2006,05,20,15,31,812.00
2006,05,20,15,32,811.10
2006,05,20,15,33,808.10
2006,05,20,15,34,807.00
2006,05,20,15,35,807.00
2006,05,20,15,36,808.70
2006,05,20,15,37,805.50
2006,05,20,15,38,809.00
2006,05,20,15,39,809.00
2006,05,20,15,40,814.10
2006,05,20,15,41,828.80
2006,05,20,15,42,841.60
2006,05,20,15,43,852.70
2006,05,20,15,44,874.60
2006,05,20,15,45,907.70
2006,05,20,15,46,923.30
2006,05,20,15,47,924.20
2006,05,20,15,48,913.30
2006,05,20,15,49,920.10
2006,05,20,15,50,928.00
2006,05,20,15,51,912.30
2006,05,20,15,52,906.30
2006,05,20,15,53,911.00
2006,05,20,15,54,909.00
2006,05,20,15,55,903.50
2006,05,20,15,56,904.10
2006,05,20,15,57,920.30
2006,05,20,15,58,914.00
2006,05,20,15,59,906.90
2006,05,20,16,00,894.20
2006,05,20,16,01,878.70
2006,05,20,16,02,866.20
2006,05,20,16,03,855.00
2006,05,20,16,04,854.00
2006,05,20,16,05,854.00
2006,05,20,16,06,838.00
2006,05,20,16,07,832.20
2006,05,20,16,08,827.70
2006,05,20,16,09,820.00
2006,05,20,16,10,812.30
2006,05,20,16,11,805.70
2006,05,20,16,12,822.80
2006,05,20,16,13,837.90
2006,05,20,16,14,849.50
2006,05,20,16,15,856.30
2006,05,20,16,16,858.00
2006,05,20,16,17,858.00
2006,05,20,16,18,852.50
2006,05,20,16,19,846.40
2006,05,20,16,20,842.60
2006,05,20,16,21,846.60
2006,05,20,16,22,851.40
2006,05,20,16,23,859.60
2006,05,20,16,24,864.50
2006,05,20,16,25,831.00
2006,05,20,16,26,831.00
2006,05,20,16,27,831.00
2006,05,20,16,28,831.00
2006,05,20,16,29,814.20
2006,05,20,16,30,481.10
2006,05,20,16,31,550.00
2006,05,20,16,32,550.00
2006,05,20,16,33,550.00
2006,05,20,16,34,689.90
2006,05,20,16,35,731.00
2006,05,20,16,36,731.00
2006,05,20,16,37,620.40
2006,05,20,16,38,413.00
2006,05,20,16,39,413.00
2006,05,20,16,40,708.30
2006,05,20,16,41,786.00
2006,05,20,16,42,761.20
2006,05,20,16,43,700.70
2006,05,20,16,44,729.00
2006,05,20,16,45,741.80
2006,05,20,16,46,712.00
2006,05,20,16,47,649.00
2006,05,20,16,48,265.00
2006,05,20,16,49,236.20
2006,05,20,16,50,244.10
2006,05,20,16,51,248.00
2006,05,20,16,52,256.30
2006,05,20,16,53,248.40
2006,05,20,16,54,251.00
2006,05,20,16,55,486.70
2006,05,20,16,56,795.80
2006,05,20,16,57,793.00
2006,05,20,16,58,783.20
2006,05,20,16,59,775.70
2006,05,20,17,00,779.00
2006,05,20,17,01,779.00
2006,05,20,17,02,749.00
2006,05,20,17,03,709.00
2006,05,20,17,04,684.70
2006,05,20,17,05,682.00
2006,05,20,17,06,682.00
2006,05,20,17,07,682.00
2006,05,20,17,08,675.00